Regional Weather Roundup
Issued by NWS Columbia, SC

Home | Current Version | Previous Version | Text Only | Print | Product List | Glossary On
Versions: 1 2 3 4 5 6 7 8 9 10 11 12 13 14 15 16 17 18 19 20 21 22 23 24 25 26 27 28 29 30 31 32 33 34 35 36 37 38 39 40 41 42 43 44 45 46 47 48 49 50
000
ASUS42 KCAE 171810
RWRCAE
REGIONAL WEATHER ROUNDUP
NATIONAL WEATHER SERVICE COLUMBIA SC
200 PM EDT THU AUG 17 2017

NOTE: "FAIR" INDICATES FEW OR NO CLOUDS BELOW 12,000 FEET WITH NO
SIGNIFICANT WEATHER AND/OR OBSTRUCTIONS TO VISIBILITY.

NOT ALL STATIONS ARE QUALITY CONTROLLED BY THE NATIONAL
WEATHER SERVICE. USE DATA WITH CAUTION...ESPECIALLY
DEWPOINT OBSERVATIONS.

SCZ001>056-GAZ040-063>065-077-171900-
...UPSTATE SOUTH CAROLINA...

CITY           SKY/WX    TMP DP  RH WIND       PRES   REMARKS
ANDERSON       SUNNY     91  72  53 SW8       30.03F HX  98
6HR MIN TEMP:  76; 6HR MAX TEMP:  93;

LIBERTY        MOCLDY    90  73  58 W6        30.03F HX  98
6HR MIN TEMP:  72; 6HR MAX TEMP:  92;

SPARTANBURG    MOSUNNY   90  72  55 SW7       30.02F HX  96
CLEMSON        MOSUNNY   89  74  60 NW6       30.04F HX  98
6HR MIN TEMP:  76; 6HR MAX TEMP:  92;

GREENVILLE     SUNNY     92  71  50 SW8G17    30.04F HX  98
6HR MIN TEMP:  79; 6HR MAX TEMP:  92;

GREENWOOD      MOSUNNY   93  74  53 W10G16    30.04F HX 103
6HR MIN TEMP:  77; 6HR MAX TEMP:  93;

GREER          MOSUNNY   90  71  53 SW12G20   30.02F HX  96
6HR MIN TEMP:  76; 6HR MAX TEMP:  91;

ROCK HILL      SUNNY     92  76  59 VRB6      30.02F HX 104
6HR MIN TEMP:  77; 6HR MAX TEMP:  92;

CHESTER        PTCLDY    91  68  46 SW5       30.02F HX  95
LAURENS        PTCLDY    91  70  49 W8        30.02F HX  97


...CENTRAL SOUTH CAROLINA...

CITY           SKY/WX    TMP DP  RH WIND       PRES   REMARKS
COLUMBIA APT   CLOUDY    91  74  57 S6        30.00F THUNDER HX 100
6HR MIN TEMP:  80; 6HR MAX TEMP:  96; 6HR PCP:  0.23;

COLUMBIA OWENS MOSUNNY   92  74  55 VRB3      30.01F THUNDER HX 101
6HR MIN TEMP:  80; 6HR MAX TEMP:  95;

MCENTIRE ANGB  PTSUNNY   80  75  85 S6        30.01F
6HR MIN TEMP:  78; 6HR MAX TEMP:  94; 6HR PCP:  0.08;

ORANGEBURG     CLOUDY    89  76  65 S8        30.01F HX 100
6HR MIN TEMP:  78; 6HR MAX TEMP:  93; 6HR PCP:  0.01;

SUMTER SHAW    PTSUNNY   96  75  49 NW12      29.97F HX 107
6HR MIN TEMP:  80; 6HR MAX TEMP:  97;

NEWBERRY       CLEAR     93  72  49 W10G17    30.04F HX 100
AIKEN          FAIR      91  73  55 SW7       30.06F HX 100
BARNWELL       FAIR      97  75  49 SW10      30.01F HX 109
MANNING        FAIR      88  75  66 CALM      30.00F HX  97
CAMDEN         FAIR      97  70  41 W14       30.00F HX 103
LANCASTER      PTCLDY    86  73  66 SW9       30.01F
WINNSBORO      CLEAR     95  70  43 SW7       30.01F HX 101


...EASTERN AND COASTAL SOUTH CAROLINA...

CITY           SKY/WX    TMP DP  RH WIND       PRES   REMARKS
MYRTLE BEACH   MOSUNNY   91  75  59 S14       30.00F HX 102
N MYRTLE BCH   CLOUDY    85  80  85 S10       30.00F HX  99
6HR MIN TEMP:  82; 6HR MAX TEMP:  88; 6HR PCP: TRACE;

CONWAY         FAIR      93  75  55 SW6       29.98F HX 104
MARION         FAIR      93  72  49 W12       29.98F HX 100
HARTSVILLE     LGT RAIN  90  75  62 SW10      29.99F HX 100
FLORENCE       CLOUDY    91  71  51 SW13      29.99F HX  97
6HR MIN TEMP:  77; 6HR MAX TEMP:  95;

DARLINGTON     TSTM      83  78  85 N14       30.00S
6HR MIN TEMP:  80; 6HR MAX TEMP:  95; 6HR PCP:  0.02;

CHARLESTON APT PTSUNNY   96  77  54 W8        29.99F HX 111
6HR MIN TEMP:  82; 6HR MAX TEMP:  96;

MOUNT PLEASANT FAIR      90  81  74 SE7       30.00F HX 108
WALTERBORO     CLOUDY    93  75  55 W5        30.01F HX 104
BEAUFORT       PTSUNNY   91  77  63 W9        30.01F HX 104
6HR MIN TEMP:  82; 6HR MAX TEMP:  95;



...EASTERN GEORGIA...

CITY           SKY/WX    TMP DP  RH WIND       PRES   REMARKS
AUGUSTA BUSH F PTSUNNY   95  74  50 W9        30.01F HX 105
6HR MIN TEMP:  81; 6HR MAX TEMP:  97;

AUGUSTA DANIEL PTSUNNY   94  71  47 W8        30.03F HX 101
6HR MIN TEMP:  82; 6HR MAX TEMP:  95;

THOMSON        SUNNY     92  74  54 W7        30.09F HX 101
6HR MIN TEMP:  77; 6HR MAX TEMP:  93;

WASHINGTON     FAIR     N/A N/A N/A NW3       30.05F
CLAXTON        MOCLDY    93  76  58 W6        30.03F HX 105
6HR MIN TEMP:  79; 6HR MAX TEMP:  94;

SYLVANIA       CLEAR     89  80  74 CALM      30.04F HX 106
6HR MIN TEMP:  79; 6HR MAX TEMP:  93;

STATESBORO     MOSUNNY   94  71  47 W8        30.03F HX 101
6HR MIN TEMP:  80; 6HR MAX TEMP:  94;

SAVANNAH       PTSUNNY   93  76  57 SW15      30.03F HX 105
6HR MIN TEMP:  81; 6HR MAX TEMP:  96;



...SOUTHERN NORTH CAROLINA...

CITY           SKY/WX    TMP DP  RH WIND       PRES   REMARKS
CHARLOTTE      MOSUNNY   92  75  57 SW9       30.02F HX 103
6HR MIN TEMP:  79; 6HR MAX TEMP:  93;

MONROE         MOSUNNY   92  73  53 SW10      30.00F HX 100
6HR MIN TEMP:  76; 6HR MAX TEMP:  93;

WADESBORO      PTCLDY    93  71  49 W6        29.99F HX 100
ROCKINGHAM     CLOUDY    94  74  51 SW6       29.99F HX 103
RUTHERFORDTON  SUNNY     88  72  59 S7        30.05F HX  95
ASHEVILLE      MOSUNNY   84  69  60 S5        30.10F
6HR MIN TEMP:  68; 6HR MAX TEMP:  86;


$$



USA.gov is the U.S. government's official web portal to all federal, state and local government web resources and services.